Wind_Speed
26 22 17 13 10 11 11 11 11 11 11 11 10 10 9 8 6 6 6 6 6 4 3 1 1 3 3 5 7 4 3 3 6 7 7 6 4 3 3 4 2 3 4 6 9 8 7
25 25 23 19 14 10 10 10 10 10 9 9 9 8 7 6 4 4 4 4 4 4 3 2 3 4 4 5 3 5 5 5 7 8 9 7 3 2 4 5 4 3 10 8 9 10 8
21 22 22 22 19 14 10 9 9 9 8 7 7 6 5 4 2 2 2 3 4 5 4 3 5 7 8 12 4 3 4 4 7 7 9 7 6 4 3 5 6 3 3 4 7 6 5
16 18 19 19 18 17 14 10 7 7 7 6 5 4 3 3 1 0 2 4 6 6 6 6 6 9 7 5 9 10 6 5 5 9 9 5 4 6 5 7 4 0 2 2 4 8 7
14 15 16 18 18 17 15 12 9 7 5 4 3 3 3 2 1 1 2 4 5 7 8 8 8 7 7 5 9 7 10 5 4 5 6 6 4 4 3 4 5 4 4 7 8 15 4
13 12 12 13 14 15 15 14 12 10 7 6 4 4 3 3 2 2 2 3 4 6 8 10 13 7 5 2 4 5 6 6 3 3 3 4 3 0 2 3 8 7 6 5 6 3 4
13 11 11 10 10 11 12 12 11 10 8 6 5 4 3 3 3 3 2 1 2 3 9 8 2 3 2 1 2 3 4 7 5 2 3 1 2 11 14 11 3 4 4 6 5 6 8
14 14 12 11 10 9 9 8 8 8 7 6 4 3 2 2 2 1 2 2 3 4 8 11 17 23 17 3 4 6 7 7 5 5 2 3 8 9 3 6 6 5 6 9 8 8 8
14 14 13 13 11 9 7 6 6 5 5 5 4 3 1 0 2 2 2 3 4 6 3 6 4 5 5 15 6 6 11 6 5 5 7 7 8 3 6 7 6 12 14 8 13 7 5
16 14 13 13 12 12 10 9 7 6 5 4 4 4 2 0 2 1 2 5 4 5 4 4 1 1 3 6 4 6 16 9 3 6 5 6 15 16 6 6 12 15 8 13 12 3 9
18 17 15 14 13 13 12 12 11 10 8 8 7 5 4 1 1 1 2 5 5 3 4 0 1 2 5 5 4 1 9 13 6 4 5 9 4 5 7 15 6 7 7 9 7 6 2
19 19 19 18 17 16 16 16 15 14 12 9 8 6 3 2 1 0 4 4 2 5 4 2 2 3 2 3 3 2 2 11 3 4 5 14 11 5 8 4 9 3 3 2 3 4 7
21 20 20 20 20 20 20 20 19 17 14 10 9 5 3 2 0 4 6 3 5 3 5 4 5 4 1 3 3 3 3 3 4 3 5 5 6 6 17 13 3 4 5 4 4 2 15
19 18 18 18 17 17 17 18 19 19 16 14 4 1 2 2 2 3 3 4 1 3 5 4 6 4 4 3 3 3 1 3 6 4 3 6 12 7 3 13 11 11 13 9 6 7 15
18 20 21 21 20 20 20 20 19 18 17 13 8 10 9 7 4 2 2 4 1 4 6 8 8 4 3 2 6 8 2 4 4 3 4 6 7 7 3 5 7 5 7 15 11 21 5
17 17 18 19 20 20 21 21 20 21 16 9 12 14 12 6 6 5 4 1 3 5 6 3 2 4 4 7 7 9 2 3 6 8 10 6 16 7 6 3 3 6 4 3 2 9 21
17 17 17 19 20 21 22 23 23 23 18 6 5 5 8 5 4 5 3 1 3 11 15 6 3 5 2 4 3 3 6 4 9 10 8 5 5 11 5 3 13 10 6 4 4 7 17
16 16 17 19 21 23 24 25 26 26 24 7 5 4 8 5 5 4 3 5 7 8 11 5 3 2 2 5 4 5 7 2 12 12 6 6 7 17 24 20 16 16 9 3 4 15 6
15 17 18 19 20 21 22 24 25 27 26 15 5 3 10 5 4 3 6 5 3 5 4 5 4 6 6 3 5 4 6 14 16 12 4 3 2 9 17 7 7 6 11 15 15 7 14
16 17 18 19 21 22 23 23 24 24 23 16 4 3 7 11 9 5 3 4 5 6 1 5 4 4 5 1 4 6 11 7 21 19 23 19 6 13 16 19 15 25 26 22 14 8 14
18 19 20 20 21 21 22 22 20 20 19 9 7 4 4 4 6 4 2 2 3 4 6 7 5 4 3 4 10 8 14 16 10 24 9 4 14 14 20 23 23 26 26 21 24 20 15
18 18 19 19 20 21 21 21 21 20 18 15 5 5 4 5 6 4 2 2 2 0 2 4 5 6 7 6 11 20 10 9 8 11 10 4 16 20 24 24 24 26 26 27 24 29 25
16 16 17 18 19 20 20 20 19 19 18 10 7 4 2 2 2 1 3 4 4 6 10 9 11 11 12 18 18 22 28 28 24 18 20 12 8 8 20 24 20 15 25 24 22 27 20
16 16 16 17 18 18 19 18 16 17 16 12 8 5 2 3 2 4 5 9 11 16 10 18 22 10 13 23 29 25 26 27 27 26 29 12 15 5 9 15 14 9 15 13 16 17 13
15 15 15 15 16 16 16 15 15 12 11 8 6 3 2 2 7 14 19 15 16 21 19 19 28 19 18 23 7 7 5 5 6 10 10 13 3 5 5 10 18 17 6 9 13 12 12
16 16 15 15 15 15 14 13 11 11 10 10 8 3 2 5 5 13 8 12 5 9 14 14 16 28 29 8 3 6 7 14 5 8 1 2 5 3 10 11 10 13 13 14 8 8 10
17 16 16 15 15 14 15 13 11 9 9 12 11 7 3 8 16 15 10 4 6 13 9 20 17 12 11 4 7 6 8 5 5 6 11 4 4 8 7 5 10 12 4 4 5 8 21
17 17 16 15 14 13 14 13 12 10 9 12 14 11 9 8 25 30 26 25 21 16 9 17 13 4 2 2 3 4 3 4 4 6 3 6 3 8 4 4 10 1 14 8 12 24 31
18 18 17 14 13 13 13 12 12 12 10 11 17 16 17 15 27 35 38 35 34 31 32 18 16 20 6 3 2 2 3 5 9 20 5 7 8 7 7 9 15 39 30 38 33 27 31
Wind_Direction
46 46 51 56 66 75 74 64 60 65 72 76 80 84 90 98 108 123 141 145 150 158 166 223 298 298 262 248 256 217 282 246 220 199 199 195 184 184 203 233 259 219 267 241 250 245 252
46 49 52 58 64 74 79 77 75 72 72 77 80 81 84 90 105 128 151 163 174 184 202 266 313 310 258 262 248 243 270 249 215 206 199 204 180 273 279 260 188 270 237 257 250 237 241
45 44 47 57 59 66 71 84 85 78 79 82 86 86 84 89 98 128 179 201 207 216 234 272 303 308 273 248 262 258 298 244 223 226 213 225 231 237 308 282 273 268 269 308 241 231 245
45 48 50 55 65 65 69 76 80 94 97 86 78 76 79 74 74 136 230 224 223 227 239 256 281 299 260 258 246 254 273 257 240 236 222 240 253 270 245 309 340 234 57 268 278 186 236
45 49 48 49 50 56 64 66 68 72 75 88 104 109 102 89 73 22 276 255 245 245 251 264 283 284 274 268 255 267 258 250 228 207 236 240 255 247 240 106 353 342 238 220 308 204 160
37 38 47 46 48 54 56 57 60 63 63 56 43 32 19 6 354 331 280 231 231 241 251 259 255 286 260 281 255 264 225 219 251 234 246 220 218 162 37 114 226 207 229 249 231 254 207
27 29 30 33 40 43 46 53 58 58 54 47 39 35 21 15 12 352 355 338 303 273 246 234 288 235 38 277 226 228 226 220 221 186 188 220 120 222 206 208 175 194 214 240 248 237 185
16 21 27 25 22 20 23 31 40 48 55 56 50 29 11 2 8 47 80 83 39 316 298 263 257 252 248 268 291 244 210 189 180 204 185 7 248 255 193 237 253 264 254 254 285 264 197
23 20 20 20 20 17 11 2 358 8 20 30 36 36 13 238 95 68 89 53 340 337 290 290 254 246 267 234 244 264 205 200 193 211 189 183 232 107 193 236 223 244 243 255 252 316 245
25 27 21 19 14 8 4 352 337 322 312 320 341 6 359 140 141 98 107 340 333 338 46 283 299 1 153 137 236 253 228 205 209 244 213 235 265 255 229 214 196 250 214 240 259 245 265
24 22 24 23 17 11 5 355 342 328 312 303 298 316 352 41 112 92 322 317 318 334 347 62 27 154 180 197 316 270 213 206 220 215 134 239 261 246 241 237 194 242 216 212 217 212 360
28 25 25 25 26 21 14 9 2 348 331 308 287 281 309 339 20 61 320 310 324 40 272 60 76 8 13 260 288 295 208 214 273 253 222 248 241 222 214 225 208 269 191 17 65 106 242
34 30 29 26 24 21 18 15 11 8 1 333 302 296 290 343 98 348 345 338 30 132 338 16 44 338 266 268 275 204 180 188 221 294 268 314 233 236 225 250 198 157 98 284 281 173 248
43 45 43 38 32 28 23 16 9 5 12 3 2 112 121 36 359 7 1 49 180 354 353 8 337 316 219 22 273 9 341 278 249 217 320 270 295 185 200 206 199 207 194 213 218 220 263
42 43 39 39 36 34 33 29 22 8 1 19 74 108 89 70 47 32 68 76 220 42 330 326 331 357 327 27 24 15 330 250 310 183 216 300 259 310 297 255 174 222 214 238 252 265 265
33 33 33 33 37 33 32 33 29 20 6 36 100 90 69 64 38 28 75 219 105 67 301 340 44 12 3 329 340 360 279 356 347 44 358 291 300 254 289 307 287 206 180 281 322 259 255
26 27 29 30 31 33 30 28 28 29 22 26 126 81 42 34 26 39 97 257 326 1 26 352 347 284 329 23 349 277 266 6 28 358 351 333 241 287 325 234 279 289 270 234 246 212 257
25 24 26 28 27 25 26 23 24 27 31 37 70 63 16 13 57 43 55 326 329 357 7 346 325 316 351 347 269 245 243 170 41 21 20 348 297 284 287 281 259 246 267 350 270 280 275
21 25 22 21 23 23 21 21 20 20 23 28 65 62 22 20 79 23 338 316 321 23 342 0 324 33 32 350 330 335 345 348 353 357 339 332 288 304 300 317 27 23 332 306 310 267 262
14 18 19 17 16 14 14 16 17 19 22 29 44 31 31 60 73 94 359 292 311 346 131 355 285 66 8 330 225 293 303 316 333 309 312 303 244 256 272 283 287 285 292 288 262 267 284
12 14 12 10 9 9 8 9 13 15 21 33 43 59 29 337 31 64 288 287 300 336 330 5 351 83 29 282 297 264 317 315 304 294 285 303 274 279 278 282 284 284 277 278 279 259 247
3 3 3 2 2 3 6 5 7 12 19 48 61 32 7 348 2 22 357 253 265 239 354 298 247 358 334 293 281 289 295 296 266 286 275 255 276 277 277 277 274 277 279 274 262 270 269
350 352 354 356 357 357 359 5 4 8 19 62 73 39 356 349 52 56 247 252 269 6 300 269 319 323 306 290 290 297 291 279 268 270 276 271 263 273 275 277 282 278 257 263 261 265 268
341 341 344 348 350 354 355 359 9 8 21 42 48 60 94 287 224 225 257 271 291 300 269 290 298 295 279 305 309 299 287 266 258 262 256 257 273 246 271 284 255 289 305 282 270 274 303
326 329 334 338 341 347 353 360 9 15 359 7 10 33 174 246 244 269 272 280 295 298 293 288 292 303 317 311 304 300 300 304 276 235 261 206 235 280 280 285 280 279 342 345 324 304 85
317 319 322 325 330 337 339 348 357 356 351 337 330 338 287 296 237 256 289 289 293 288 287 269 301 301 303 296 306 303 296 289 275 302 347 84 229 215 290 284 280 279 316 14 337 286 333
306 308 310 314 320 323 326 334 343 348 348 325 332 317 256 275 275 267 253 259 287 286 284 292 296 299 296 271 274 270 265 218 242 249 292 292 299 251 267 277 278 271 238 348 332 286 303
303 302 301 305 308 314 319 325 332 339 338 314 313 322 288 261 279 274 278 269 271 262 267 289 313 290 259 209 234 244 241 243 282 263 275 267 292 283 285 236 276 66 336 298 314 306 302
300 296 299 296 298 305 316 324 326 325 324 308 301 310 307 265 277 289 288 284 275 274 271 263 248 274 255 267 268 278 289 278 273 284 279 254 202 260 199 254 275 286 291 296 298 287 299
Height
1535 1532 1529 1527 1526 1525 1525 1525 1525 1525 1525 1525 1525 1525 1525 1525 1526 1526 1527 1528 1529 1529 1530 1531 1531 1531 1531 1532 1529 1528 1528 1528 1528 1528 1529 1530 1530 1531 1533 1531 1530 1530 1527 1525 1525 1524 1524
1539 1536 1533 1530 1528 1528 1527 1527 1527 1527 1527 1527 1528 1528 1528 1528 1528 1529 1529 1529 1530 1530 1531 1531 1531 1531 1532 1533 1528 1527 1527 1527 1527 1528 1529 1530 1531 1532 1532 1530 1530 1525 1524 1523 1523 1522 1522
1544 1541 1537 1534 1532 1530 1529 1528 1528 1528 1528 1528 1528 1529 1529 1530 1530 1530 1530 1531 1531 1531 1531 1532 1532 1531 1531 1529 1528 1527 1527 1528 1528 1529 1530 1530 1531 1532 1532 1529 1526 1524 1526 1523 1520 1521 1521
1545 1542 1540 1537 1534 1532 1531 1530 1530 1529 1529 1529 1529 1529 1530 1530 1530 1530 1530 1530 1531 1531 1532 1532 1532 1531 1528 1526 1526 1527 1527 1528 1528 1528 1530 1531 1531 1531 1531 1529 1527 1526 1527 1534 1519 1517 1517
1547 1545 1542 1540 1538 1536 1534 1532 1531 1531 1530 1530 1530 1530 1530 1529 1529 1529 1529 1530 1530 1531 1531 1531 1531 1530 1526 1525 1525 1526 1527 1528 1528 1529 1529 1530 1530 1530 1530 1533 1539 1535 1541 1536 1526 1513 1514
1548 1546 1545 1543 1540 1538 1536 1535 1534 1533 1532 1532 1531 1531 1530 1529 1529 1529 1528 1528 1529 1529 1530 1530 1529 1532 1525 1525 1524 1525 1525 1527 1528 1529 1530 1530 1530 1531 1532 1537 1546 1538 1538 1532 1528 1510 1513
1549 1547 1545 1544 1543 1541 1539 1537 1535 1534 1533 1532 1531 1531 1530 1530 1529 1529 1529 1529 1532 1531 1528 1525 1525 1524 1523 1525 1524 1524 1524 1526 1527 1528 1531 1529 1535 1534 1525 1523 1524 1523 1529 1526 1515 1506 1510
1549 1547 1546 1544 1543 1541 1540 1538 1536 1535 1533 1532 1531 1530 1530 1530 1529 1529 1529 1529 1530 1531 1525 1521 1520 1521 1523 1524 1524 1523 1525 1527 1527 1530 1529 1534 1536 1521 1522 1525 1526 1525 1525 1524 1512 1505 1510
1550 1548 1546 1544 1542 1540 1539 1537 1536 1535 1533 1532 1531 1530 1529 1529 1529 1530 1530 1530 1529 1528 1527 1518 1517 1517 1518 1521 1523 1522 1524 1524 1525 1527 1527 1534 1520 1515 1520 1523 1526 1522 1524 1522 1517 1507 1502
1552 1549 1547 1544 1542 1540 1538 1537 1535 1534 1533 1532 1531 1530 1529 1529 1532 1530 1531 1530 1529 1529 1534 1522 1519 1519 1519 1519 1520 1518 1518 1523 1524 1525 1526 1527 1512 1513 1517 1518 1517 1518 1511 1512 1513 1518 1519
1553 1550 1548 1546 1544 1541 1539 1537 1535 1533 1532 1531 1530 1530 1530 1529 1530 1530 1531 1529 1529 1529 1548 1522 1519 1519 1518 1520 1520 1518 1517 1519 1519 1518 1521 1519 1511 1512 1516 1508 1508 1507 1501 1504 1505 1511 1511
1555 1553 1550 1548 1546 1543 1540 1538 1535 1533 1531 1530 1529 1530 1530 1531 1531 1531 1530 1530 1530 1540 1543 1521 1520 1521 1521 1520 1519 1517 1518 1519 1517 1517 1514 1509 1505 1504 1500 1496 1499 1498 1501 1503 1509 1514 1519
1557 1555 1552 1550 1547 1545 1542 1539 1536 1533 1531 1528 1527 1528 1530 1530 1531 1531 1530 1531 1541 1548 1522 1527 1526 1523 1523 1521 1519 1518 1519 1521 1525 1526 1522 1509 1500 1492 1492 1497 1495 1498 1508 1526 1521 1524 1493
1560 1558 1555 1553 1550 1547 1544 1540 1537 1533 1530 1528 1526 1527 1528 1529 1530 1530 1530 1532 1544 1535 1534 1529 1529 1523 1525 1521 1520 1520 1521 1525 1517 1519 1524 1519 1500 1490 1482 1487 1488 1489 1494 1504 1515 1508 1476
1564 1561 1558 1556 1553 1550 1546 1543 1539 1534 1531 1528 1527 1527 1529 1530 1530 1530 1531 1546 1544 1543 1543 1537 1529 1529 1527 1524 1527 1523 1524 1524 1518 1519 1524 1516 1505 1486 1484 1482 1484 1485 1493 1477 1487 1469 1493
1566 1563 1561 1558 1555 1551 1548 1545 1541 1537 1532 1530 1529 1529 1531 1532 1532 1532 1534 1544 1542 1543 1541 1538 1539 1535 1540 1534 1534 1532 1526 1519 1522 1522 1521 1517 1505 1486 1481 1478 1477 1479 1476 1489 1497 1493 1481
1568 1565 1563 1560 1557 1554 1550 1547 1543 1539 1534 1531 1530 1531 1534 1533 1533 1534 1546 1547 1542 1541 1540 1540 1538 1538 1536 1542 1539 1537 1527 1522 1523 1523 1521 1521 1515 1487 1486 1487 1485 1480 1480 1476 1475 1477 1465
1570 1568 1565 1562 1558 1555 1551 1548 1544 1541 1537 1533 1532 1536 1536 1535 1537 1543 1548 1548 1545 1542 1541 1540 1538 1538 1539 1541 1539 1535 1529 1522 1529 1528 1528 1526 1516 1500 1487 1480 1473 1470 1470 1477 1476 1467 1465
1572 1569 1566 1563 1560 1557 1553 1550 1547 1542 1537 1534 1535 1539 1539 1537 1548 1554 1551 1548 1546 1545 1544 1543 1542 1541 1543 1543 1545 1533 1533 1528 1528 1529 1525 1523 1514 1512 1484 1477 1484 1488 1485 1490 1498 1490 1476
1572 1569 1566 1563 1560 1557 1555 1552 1549 1546 1542 1539 1539 1543 1543 1543 1550 1554 1556 1553 1549 1546 1546 1546 1544 1543 1545 1544 1543 1538 1536 1531 1530 1528 1524 1520 1513 1515 1508 1495 1496 1489 1479 1478 1488 1486 1478
1571 1568 1566 1564 1562 1559 1556 1554 1552 1549 1546 1544 1544 1552 1553 1555 1555 1557 1557 1554 1552 1550 1547 1545 1545 1546 1549 1547 1543 1538 1536 1532 1527 1524 1520 1521 1515 1512 1501 1495 1491 1486 1479 1476 1470 1467 1470
1570 1568 1566 1564 1562 1560 1558 1555 1552 1550 1547 1547 1551 1555 1556 1556 1556 1556 1556 1554 1551 1550 1552 1550 1549 1548 1549 1549 1546 1536 1535 1534 1528 1520 1518 1515 1509 1504 1497 1490 1486 1477 1470 1464 1459 1447 1444
1571 1568 1566 1564 1562 1560 1558 1556 1553 1551 1549 1551 1555 1557 1556 1558 1558 1560 1557 1553 1549 1552 1550 1548 1549 1548 1547 1542 1538 1535 1530 1525 1519 1516 1511 1510 1505 1506 1494 1481 1478 1474 1454 1448 1444 1436 1437
1569 1568 1566 1564 1562 1560 1557 1556 1555 1553 1552 1554 1556 1557 1558 1560 1559 1557 1552 1552 1551 1552 1553 1548 1546 1545 1539 1536 1531 1526 1520 1513 1508 1501 1497 1501 1497 1498 1486 1477 1473 1452 1443 1444 1439 1430 1427
1568 1567 1565 1563 1561 1559 1557 1556 1556 1555 1554 1554 1555 1557 1558 1559 1557 1553 1550 1549 1549 1549 1548 1545 1541 1538 1534 1533 1527 1520 1513 1507 1498 1491 1487 1489 1496 1493 1491 1480 1461 1447 1441 1444 1437 1428 1431
1566 1565 1563 1561 1560 1558 1556 1555 1555 1555 1554 1553 1554 1555 1557 1557 1551 1549 1548 1547 1548 1545 1543 1538 1535 1534 1532 1529 1528 1523 1517 1514 1506 1491 1484 1486 1487 1493 1483 1481 1471 1439 1439 1439 1433 1432 1431
1562 1562 1561 1559 1558 1556 1555 1554 1553 1553 1553 1552 1552 1552 1553 1553 1545 1545 1544 1543 1544 1543 1539 1535 1532 1530 1530 1526 1524 1517 1510 1504 1500 1495 1488 1490 1491 1487 1483 1483 1461 1437 1436 1435 1439 1441 1422
1559 1558 1557 1556 1554 1554 1553 1552 1551 1551 1551 1550 1549 1550 1550 1547 1538 1537 1537 1538 1537 1537 1536 1530 1531 1521 1522 1525 1519 1514 1505 1501 1498 1489 1488 1491 1498 1484 1483 1481 1461 1436 1436 1439 1432 1427 1422
1555 1554 1553 1552 1551 1550 1550 1549 1549 1549 1549 1548 1546 1546 1546 1542 1534 1530 1529 1529 1529 1527 1529 1530 1524 1520 1520 1515 1512 1509 1505 1499 1495 1484 1479 1482 1476 1471 1472 1454 1440 1431 1435 1430 1429 1422 1418